Sheridan, IN

6:29 AM EST on January 23, 2017 (GMT -0500)
Indianapolis Terry

Weather History for KTYQ - October, 2012

Change the Weather History Date:

Wednesday, October 17, 2012

  Actual Average (KEYE) Record (KEYE)
Temperature  
Mean Temperature 61 °F -  
Max Temperature 70 °F 61 °F 82 °F (2016)
Min Temperature 52 °F 42 °F 34 °F (2015)
Degree Days  
Heating Degree Days 4    
Growing Degree Days 11 (Base 50)    
Moisture  
Dew Point 48 °F    
Average Humidity 63    
Maximum Humidity 82    
Minimum Humidity 41    
Precipitation  
Precipitation 0.19 in - - ()
Sea Level Pressure  
Sea Level Pressure 29.64 in    
Wind  
Wind Speed 11 mph (South)    
Max Wind Speed 22 mph    
Max Gust Speed 30 mph    
Visibility 10 miles    
Events Rain , Thunderstorm    
Averages and records for this station are not official NWS values.
T = Trace of Precipitation, MM = Missing Value Source: NWS Daily Summary

Daily Weather History Graph

Daily Weather History Graph

Search for Another Location

Airport or City:

Trip Planner

Search our weather history database for the weather conditions in past years. The results will help you decide how hot, cold, wet, or windy it might be!

Date:

Astronomy

Oct. 17, 2012 Rise Set
Actual Time 7:58 AM EDT 7:01 PM EDT
Civil Twilight 7:30 AM EDT 7:29 PM EDT
Nautical Twilight 6:59 AM EDT 8:00 PM EDT
Astronomical Twilight 6:27 AM EDT 8:31 PM EDT
Moon 10:31 AM EDT (10/17) 8:37 PM EDT (10/17)
Length of Visible Light 11h 58m
Length of Day
11h 03m
Waxing Crescent, 7% of the Moon is Illuminated
Oct 17
Waxing Crescent
Oct 21
First Quarter
Oct 29
Full
Nov 6
Last Quarter
Nov 13
New

Hourly Weather History & Observations

Time (EDT) Temp. Dew Point Humidity Pressure Visibility Wind Dir Wind Speed Gust Speed Precip Events Conditions
12:15 AM 60.1 °F 44.2 °F 56% 29.73 in 10.0 mi South 12.7 mph - N/A   Clear
12:35 AM 59.9 °F 44.6 °F 57% 29.73 in 10.0 mi South 11.5 mph 17.3 mph N/A   Clear
12:55 AM 59.5 °F 44.8 °F 58% 29.72 in 10.0 mi South 11.5 mph 16.1 mph N/A   Clear
1:15 AM 59.5 °F 45.5 °F 60% 29.72 in 10.0 mi South 10.4 mph - N/A   Clear
1:35 AM 59.5 °F 45.7 °F 60% 29.72 in 10.0 mi South 9.2 mph 17.3 mph N/A   Clear
1:55 AM 59.9 °F 46.4 °F 61% 29.73 in 10.0 mi South 10.4 mph - N/A   Clear
2:15 AM 59.9 °F 46.9 °F 62% 29.72 in 10.0 mi South 9.2 mph - N/A   Clear
2:35 AM 59.9 °F 47.3 °F 63% 29.73 in 10.0 mi SSW 10.4 mph - N/A   Clear
2:55 AM 61.2 °F 47.5 °F 61% 29.74 in 10.0 mi SSW 9.2 mph - N/A   Clear
3:15 AM 61.3 °F 47.3 °F 60% 29.73 in 10.0 mi SSW 11.5 mph 17.3 mph N/A   Clear
3:35 AM 60.4 °F 47.3 °F 62% 29.73 in 10.0 mi SSW 9.2 mph - N/A   Clear
3:55 AM 59.4 °F 46.9 °F 63% 29.72 in 10.0 mi SSW 10.4 mph - N/A   Clear
4:15 AM 58.1 °F 46.8 °F 66% 29.72 in 10.0 mi South 8.1 mph - N/A   Clear
4:35 AM 57.4 °F 46.6 °F 67% 29.72 in 10.0 mi SSW 8.1 mph - N/A   Clear
4:55 AM 57.6 °F 46.4 °F 66% 29.72 in 10.0 mi South 8.1 mph - N/A   Clear
5:15 AM 57.4 °F 46.4 °F 67% 29.72 in 10.0 mi SSW 8.1 mph - N/A   Clear
5:35 AM 56.5 °F 46.4 °F 69% 29.72 in 10.0 mi South 6.9 mph - N/A   Clear
5:55 AM 55.6 °F 46.2 °F 71% 29.72 in 10.0 mi South 6.9 mph - N/A   Clear
6:15 AM 54.3 °F 46.0 °F 74% 29.72 in 10.0 mi South 6.9 mph - N/A   Clear
6:35 AM 53.6 °F 45.9 °F 75% 29.71 in 10.0 mi South 6.9 mph - N/A   Clear
6:55 AM 53.2 °F 45.9 °F 76% 29.71 in 10.0 mi South 5.8 mph - N/A   Clear
7:15 AM 53.2 °F 45.9 °F 76% 29.71 in 10.0 mi South 6.9 mph - N/A   Clear
7:35 AM 52.9 °F 45.5 °F 76% 29.71 in 10.0 mi South 5.8 mph - N/A   Clear
7:55 AM 52.9 °F 45.9 °F 77% 29.72 in 10.0 mi South 6.9 mph - N/A   Clear
8:15 AM 52.2 °F 45.5 °F 78% 29.72 in 10.0 mi South 5.8 mph - N/A   Clear
8:35 AM 53.6 °F 46.4 °F 77% 29.72 in 10.0 mi South 6.9 mph - N/A   Clear
8:55 AM 55.4 °F 46.6 °F 72% 29.72 in 10.0 mi South 8.1 mph - N/A   Clear
9:15 AM 57.2 °F 46.6 °F 68% 29.73 in 10.0 mi South 9.2 mph - N/A   Clear
9:35 AM 58.5 °F 46.6 °F 65% 29.72 in 10.0 mi South 12.7 mph 17.3 mph N/A   Clear
9:55 AM 60.1 °F 46.8 °F 61% 29.72 in 10.0 mi South 13.8 mph - N/A   Clear
10:15 AM 62.2 °F 46.6 °F 57% 29.71 in 10.0 mi South 12.7 mph 19.6 mph N/A   Clear
10:35 AM 63.3 °F 47.3 °F 56% 29.71 in 10.0 mi South 16.1 mph 19.6 mph N/A   Clear
10:55 AM 64.6 °F 47.1 °F 53% 29.71 in 10.0 mi South 15.0 mph 24.2 mph N/A   Clear
11:15 AM 66.4 °F 47.3 °F 50% 29.70 in 10.0 mi South 13.8 mph 25.3 mph N/A   Clear
11:35 AM 65.8 °F 47.1 °F 51% 29.69 in 10.0 mi South 13.8 mph 18.4 mph N/A   Clear
11:55 AM 66.4 °F 46.8 °F 49% 29.68 in 10.0 mi South 13.8 mph 24.2 mph N/A   Clear
12:15 PM 67.1 °F 46.6 °F 48% 29.68 in 10.0 mi South 15.0 mph 21.9 mph N/A   Clear
12:35 PM 69.1 °F 46.6 °F 45% 29.68 in 7.0 mi South 18.4 mph 27.6 mph N/A   Clear
12:55 PM 69.3 °F 46.6 °F 44% 29.67 in 10.0 mi South 17.3 mph 25.3 mph N/A   Clear
1:15 PM 70.5 °F 46.2 °F 42% 29.67 in 10.0 mi SSW 20.7 mph 28.8 mph N/A   Clear
1:35 PM 70.7 °F 46.4 °F 42% 29.66 in 10.0 mi South 17.3 mph 26.5 mph N/A   Mostly Cloudy
1:55 PM 70.3 °F 45.5 °F 41% 29.65 in 10.0 mi SSW 19.6 mph 25.3 mph N/A   Overcast
2:15 PM 68.9 °F 44.6 °F 42% 29.64 in 10.0 mi South 21.9 mph 29.9 mph N/A   Overcast
2:35 PM 68.5 °F 45.0 °F 43% 29.63 in 10.0 mi South 16.1 mph 26.5 mph N/A   Overcast
2:55 PM 68.4 °F 45.1 °F 43% 29.62 in 10.0 mi South 13.8 mph 24.2 mph N/A   Overcast
3:15 PM 69.1 °F 45.0 °F 42% 29.61 in 10.0 mi South 16.1 mph 24.2 mph N/A   Overcast
3:35 PM 68.7 °F 44.8 °F 42% 29.60 in 10.0 mi South 16.1 mph 26.5 mph N/A Thunderstorm Mostly Cloudy
3:55 PM 64.6 °F 48.4 °F 56% 29.61 in 7.0 mi South 11.5 mph 24.2 mph 0.01 in Rain , Thunderstorm Thunderstorms and Rain
4:35 PM 58.3 °F 50.0 °F 74% 29.60 in 10.0 mi South 6.9 mph - 0.08 in Rain , Thunderstorm Thunderstorms and Rain
4:55 PM 57.7 °F 51.3 °F 79% 29.59 in 7.0 mi South 3.5 mph - 0.10 in Rain , Thunderstorm Light Thunderstorms and Rain
5:15 PM 57.6 °F 52.0 °F 82% 29.59 in 10.0 mi ESE 3.5 mph - 0.02 in Rain , Thunderstorm Thunderstorms and Rain
5:35 PM 59.0 °F 52.3 °F 79% 29.58 in 5.0 mi SSE 10.4 mph - 0.05 in Rain , Thunderstorm Heavy Thunderstorms and Rain
5:55 PM 59.7 °F 52.9 °F 78% 29.58 in 7.0 mi SE 9.2 mph - 0.07 in Rain , Thunderstorm Light Thunderstorms and Rain
6:15 PM 60.3 °F 53.2 °F 78% 29.58 in 10.0 mi SSE 10.4 mph - N/A   Overcast
6:35 PM 60.8 °F 52.7 °F 75% 29.57 in 10.0 mi SSE 11.5 mph - N/A Thunderstorm Overcast
6:55 PM 60.1 °F 52.9 °F 77% 29.56 in 10.0 mi SE 9.2 mph - N/A   Mostly Cloudy
7:15 PM 60.1 °F 52.9 °F 77% 29.55 in 10.0 mi SE 16.1 mph - N/A   Overcast
7:35 PM 60.8 °F 52.7 °F 75% 29.54 in 10.0 mi SE 15.0 mph 21.9 mph N/A   Overcast
7:55 PM 60.8 °F 52.0 °F 73% 29.53 in 10.0 mi SE 12.7 mph - N/A   Mostly Cloudy
8:15 PM 60.4 °F 52.2 °F 74% 29.52 in 10.0 mi SE 9.2 mph - N/A   Mostly Cloudy
8:35 PM 60.8 °F 51.8 °F 72% 29.51 in 10.0 mi SE 10.4 mph - N/A   Mostly Cloudy
8:55 PM 61.0 °F 50.9 °F 69% 29.49 in 10.0 mi SE 11.5 mph 16.1 mph N/A   Mostly Cloudy
9:15 PM 61.5 °F 50.4 °F 67% 29.48 in 10.0 mi SE 10.4 mph - N/A   Scattered Clouds
9:35 PM 61.7 °F 50.4 °F 66% 29.47 in 10.0 mi SE 13.8 mph - N/A   Mostly Cloudy
9:55 PM 62.2 °F 50.0 °F 64% 29.46 in 10.0 mi SE 12.7 mph - N/A   Overcast
10:15 PM 62.4 °F 50.0 °F 64% 29.46 in 10.0 mi SSE 12.7 mph - N/A   Overcast
10:35 PM 62.6 °F 49.6 °F 63% 29.46 in 10.0 mi SSE 11.5 mph - N/A   Overcast
10:55 PM 62.8 °F 49.6 °F 62% 29.47 in 10.0 mi SSE 10.4 mph 18.4 mph N/A Rain Light Rain
11:15 PM 63.9 °F 49.1 °F 59% 29.49 in 10.0 mi South 11.5 mph 18.4 mph N/A Rain Rain
11:35 PM 62.1 °F 50.9 °F 67% 29.50 in 10.0 mi South 11.5 mph 19.6 mph N/A Rain Light Rain
11:55 PM 60.8 °F 51.3 °F 71% 29.50 in 10.0 mi SSW 12.7 mph 18.4 mph 0.01 in Rain Light Rain